Time,TemperatureF,DewpointF,PressureIn,WindDirection,WindDirectionDegrees,WindSpeedMPH,WindSpeedGustMPH,Humidity,HourlyPrecipIn,Conditions,Clouds,dailyrainin,SolarRadiationWatts/m^2,SoftwareType,DateUTC
2013-02-06 00:02:00,62.0,61.0,-100.00,ESE,115,0.0,3.0,95,0.00,,,0.00,0.000000,,2013-02-06 05:02:00,
2013-02-06 00:32:00,62.0,61.0,-100.00,ESE,115,0.0,3.0,95,0.00,,,0.00,0.000000,,2013-02-06 05:32:00,
2013-02-06 01:01:00,61.0,60.0,-100.00,ESE,118,2.0,3.0,96,0.00,,,0.00,0.000000,,2013-02-06 06:01:00,
2013-02-06 01:32:00,61.0,60.0,-100.00,ESE,118,2.0,3.0,96,0.00,,,0.00,0.000000,,2013-02-06 06:32:00,
2013-02-06 02:02:00,61.0,60.0,-100.00,East,82,0.0,2.0,96,-99.99,,,0.00,0.000000,,2013-02-06 07:02:00,
2013-02-06 02:32:00,61.0,60.0,-100.00,East,82,0.0,2.0,96,-99.99,,,0.00,0.000000,,2013-02-06 07:32:00,
2013-02-06 03:01:00,61.0,60.0,-100.00,NE,54,2.0,2.0,97,0.00,,,0.00,0.000000,,2013-02-06 08:01:00,
2013-02-06 03:32:00,61.0,60.0,-100.00,NE,54,2.0,2.0,97,0.00,,,0.00,0.000000,,2013-02-06 08:32:00,
2013-02-06 04:02:00,60.0,59.0,-100.00,NE,48,2.0,3.0,98,0.00,,,0.00,0.000000,,2013-02-06 09:02:00,
2013-02-06 04:32:00,60.0,59.0,-100.00,NE,48,2.0,3.0,98,0.00,,,0.00,0.000000,,2013-02-06 09:32:00,
2013-02-06 05:01:00,66.0,65.0,-100.00,NE,51,3.0,4.0,98,-99.99,,,0.00,0.000000,,2013-02-06 10:01:00,
2013-02-06 05:11:00,66.0,65.0,-100.00,NE,51,3.0,4.0,98,-99.99,,,0.00,0.000000,,2013-02-06 10:11:00,
2013-02-06 05:22:00,66.0,65.0,-100.00,NE,51,3.0,4.0,98,-99.99,,,0.00,0.000000,,2013-02-06 10:22:00,
2013-02-06 05:32:00,66.0,65.0,-100.00,NE,51,3.0,4.0,98,-99.99,,,0.00,0.000000,,2013-02-06 10:32:00,
2013-02-06 05:52:00,67.0,66.0,-100.00,ENE,58,3.0,4.0,98,0.00,,,0.00,0.000000,,2013-02-06 10:52:00,
2013-02-06 06:02:00,67.0,66.0,-100.00,ENE,58,3.0,4.0,98,0.00,,,0.00,0.000000,,2013-02-06 11:02:00,
2013-02-06 06:11:00,67.0,66.0,-100.00,ENE,58,3.0,4.0,98,0.00,,,0.00,0.000000,,2013-02-06 11:11:00,
2013-02-06 06:22:00,67.0,66.0,-100.00,ENE,58,3.0,4.0,98,0.00,,,0.00,0.000000,,2013-02-06 11:22:00,
2013-02-06 06:32:00,67.0,66.0,-100.00,ENE,58,3.0,4.0,98,0.00,,,0.00,0.000000,,2013-02-06 11:32:00,
2013-02-06 07:02:00,67.0,66.0,-100.00,NE,48,3.0,5.0,98,0.00,,,0.00,0.000000,,2013-02-06 12:02:00,
2013-02-06 07:12:00,67.0,66.0,-100.00,NE,48,3.0,5.0,98,0.00,,,0.00,0.000000,,2013-02-06 12:12:00,
2013-02-06 07:22:00,67.0,66.0,-100.00,NE,48,3.0,5.0,98,0.00,,,0.00,0.000000,,2013-02-06 12:22:00,
2013-02-06 07:32:00,67.0,66.0,-100.00,NE,48,3.0,5.0,98,0.00,,,0.00,0.000000,,2013-02-06 12:32:00,
2013-02-06 08:02:00,68.0,67.0,-100.00,ENE,58,4.0,6.0,97,0.00,,,0.00,10.000000,,2013-02-06 13:02:00,
2013-02-06 08:12:00,68.0,67.0,-100.00,ENE,58,4.0,6.0,97,0.00,,,0.00,10.000000,,2013-02-06 13:12:00,
2013-02-06 08:22:00,68.0,67.0,-100.00,ENE,58,4.0,6.0,97,0.00,,,0.00,10.000000,,2013-02-06 13:22:00,
2013-02-06 08:32:00,68.0,67.0,-100.00,ENE,58,4.0,6.0,97,0.00,,,0.00,10.000000,,2013-02-06 13:32:00,
2013-02-06 08:52:00,72.0,68.0,-100.00,East,80,3.0,7.0,87,0.00,,,0.00,143.000000,,2013-02-06 13:52:00,
2013-02-06 09:02:00,72.0,68.0,-100.00,East,80,3.0,7.0,87,0.00,,,0.00,143.000000,,2013-02-06 14:02:00,
2013-02-06 09:11:00,72.0,68.0,-100.00,East,80,3.0,7.0,87,0.00,,,0.00,143.000000,,2013-02-06 14:11:00,
2013-02-06 09:22:00,72.0,68.0,-100.00,East,80,3.0,7.0,87,0.00,,,0.00,143.000000,,2013-02-06 14:22:00,
2013-02-06 09:32:00,72.0,68.0,-100.00,East,80,3.0,7.0,87,0.00,,,0.00,143.000000,,2013-02-06 14:32:00,
2013-02-06 09:52:00,76.0,69.0,-100.00,NE,53,5.0,8.0,78,0.00,,,0.00,347.000000,,2013-02-06 14:52:00,
2013-02-06 10:02:00,76.0,69.0,-100.00,NE,53,5.0,8.0,78,0.00,,,0.00,347.000000,,2013-02-06 15:02:00,
2013-02-06 10:11:00,76.0,69.0,-100.00,NE,53,5.0,8.0,78,0.00,,,0.00,347.000000,,2013-02-06 15:11:00,
2013-02-06 10:21:00,76.0,69.0,-100.00,NE,53,5.0,8.0,78,0.00,,,0.00,347.000000,,2013-02-06 15:21:00,
2013-02-06 10:32:00,76.0,69.0,-100.00,NE,53,5.0,8.0,78,0.00,,,0.00,347.000000,,2013-02-06 15:32:00,
2013-02-06 11:01:00,78.0,67.0,-100.00,ENE,78,6.0,10.0,70,0.00,,,0.00,518.000000,,2013-02-06 16:01:00,
2013-02-06 11:11:00,78.0,67.0,-100.00,ENE,78,6.0,10.0,70,0.00,,,0.00,518.000000,,2013-02-06 16:11:00,
2013-02-06 11:22:00,78.0,67.0,-100.00,ENE,78,6.0,10.0,70,0.00,,,0.00,518.000000,,2013-02-06 16:22:00,
2013-02-06 11:32:00,78.0,67.0,-100.00,ENE,78,6.0,10.0,70,0.00,,,0.00,518.000000,,2013-02-06 16:32:00,
2013-02-06 11:52:00,75.0,67.0,-100.00,ENE,72,6.0,10.0,77,0.00,,,0.00,337.000000,,2013-02-06 16:52:00,
2013-02-06 12:02:00,75.0,67.0,-100.00,ENE,72,6.0,10.0,77,0.00,,,0.00,337.000000,,2013-02-06 17:02:00,
2013-02-06 12:12:00,75.0,67.0,-100.00,ENE,72,6.0,10.0,77,0.00,,,0.00,337.000000,,2013-02-06 17:12:00,
2013-02-06 12:22:00,75.0,67.0,-100.00,ENE,72,6.0,10.0,77,0.00,,,0.00,337.000000,,2013-02-06 17:22:00,
2013-02-06 12:32:00,75.0,67.0,-100.00,ENE,72,6.0,10.0,77,0.00,,,0.00,337.000000,,2013-02-06 17:32:00,
2013-02-06 13:02:00,78.0,67.0,-100.00,NE,56,5.0,12.0,70,0.00,,,0.00,659.000000,,2013-02-06 18:02:00,
2013-02-06 13:12:00,78.0,67.0,-100.00,NE,56,5.0,12.0,70,0.00,,,0.00,659.000000,,2013-02-06 18:12:00,
2013-02-06 13:23:00,78.0,67.0,-100.00,NE,56,5.0,12.0,70,0.00,,,0.00,659.000000,,2013-02-06 18:23:00,
2013-02-06 13:32:00,78.0,67.0,-100.00,NE,56,5.0,12.0,70,0.00,,,0.00,659.000000,,2013-02-06 18:32:00,
2013-02-06 14:02:00,76.0,67.0,-100.00,NE,48,6.0,12.0,75,0.00,,,0.00,629.000000,,2013-02-06 19:02:00,
2013-02-06 14:11:00,76.0,67.0,-100.00,NE,48,6.0,12.0,75,0.00,,,0.00,629.000000,,2013-02-06 19:11:00,
2013-02-06 14:22:00,76.0,67.0,-100.00,NE,48,6.0,12.0,75,0.00,,,0.00,629.000000,,2013-02-06 19:22:00,
2013-02-06 14:32:00,76.0,67.0,-100.00,NE,48,6.0,12.0,75,0.00,,,0.00,629.000000,,2013-02-06 19:32:00,
2013-02-06 15:01:00,77.0,68.0,-100.00,NE,51,4.0,10.0,75,0.00,,,0.00,401.000000,,2013-02-06 20:01:00,
2013-02-06 15:11:00,77.0,68.0,-100.00,NE,51,4.0,10.0,75,0.00,,,0.00,401.000000,,2013-02-06 20:11:00,
2013-02-06 15:21:00,77.0,68.0,-100.00,NE,51,4.0,10.0,75,0.00,,,0.00,401.000000,,2013-02-06 20:21:00,
2013-02-06 15:32:00,77.0,68.0,-100.00,NE,51,4.0,10.0,75,0.00,,,0.00,401.000000,,2013-02-06 20:32:00,
2013-02-06 16:02:00,78.0,67.0,-100.00,East,97,6.0,11.0,70,0.00,,,0.00,270.000000,,2013-02-06 21:02:00,
2013-02-06 16:11:00,78.0,67.0,-100.00,East,97,6.0,11.0,70,0.00,,,0.00,270.000000,,2013-02-06 21:11:00,
2013-02-06 16:21:00,78.0,67.0,-100.00,East,97,6.0,11.0,70,0.00,,,0.00,270.000000,,2013-02-06 21:21:00,
2013-02-06 16:32:00,78.0,67.0,-100.00,East,97,6.0,11.0,70,0.00,,,0.00,270.000000,,2013-02-06 21:32:00,
2013-02-06 17:01:00,78.0,68.0,-100.00,ESE,107,5.0,10.0,71,0.00,,,0.00,305.000000,,2013-02-06 22:01:00,
2013-02-06 17:11:00,78.0,68.0,-100.00,ESE,107,5.0,10.0,71,0.00,,,0.00,305.000000,,2013-02-06 22:11:00,
2013-02-06 17:22:00,78.0,68.0,-100.00,ESE,107,5.0,10.0,71,0.00,,,0.00,305.000000,,2013-02-06 22:22:00,
2013-02-06 17:32:00,78.0,68.0,-100.00,ESE,107,5.0,10.0,71,0.00,,,0.00,305.000000,,2013-02-06 22:32:00,
2013-02-06 18:01:00,74.0,67.0,-100.00,ESE,111,4.0,9.0,78,0.00,,,0.00,155.000000,,2013-02-06 23:01:00,
2013-02-06 18:11:00,74.0,67.0,-100.00,ESE,111,4.0,9.0,78,0.00,,,0.00,155.000000,,2013-02-06 23:11:00,
2013-02-06 18:21:00,74.0,67.0,-100.00,ESE,111,4.0,9.0,78,0.00,,,0.00,155.000000,,2013-02-06 23:21:00,
2013-02-06 18:32:00,74.0,67.0,-100.00,ESE,111,4.0,9.0,78,0.00,,,0.00,155.000000,,2013-02-06 23:32:00,
2013-02-06 19:02:00,72.0,67.0,-100.00,ESE,107,3.0,8.0,85,0.00,,,0.00,16.000000,,2013-02-07 00:02:00,
2013-02-06 19:11:00,72.0,67.0,-100.00,ESE,107,3.0,8.0,85,0.00,,,0.00,16.000000,,2013-02-07 00:11:00,
2013-02-06 19:22:00,72.0,67.0,-100.00,ESE,107,3.0,8.0,85,0.00,,,0.00,16.000000,,2013-02-07 00:22:00,
2013-02-06 19:32:00,72.0,67.0,-100.00,ESE,107,3.0,8.0,85,0.00,,,0.00,16.000000,,2013-02-07 00:32:00,
2013-02-06 20:01:00,72.0,68.0,-100.00,ESE,104,3.0,7.0,86,0.00,,,0.00,0.000000,,2013-02-07 01:01:00,
2013-02-06 20:11:00,72.0,68.0,-100.00,ESE,104,3.0,7.0,86,0.00,,,0.00,0.000000,,2013-02-07 01:11:00,
2013-02-06 20:21:00,72.0,68.0,-100.00,ESE,104,3.0,7.0,86,0.00,,,0.00,0.000000,,2013-02-07 01:21:00,
2013-02-06 20:32:00,72.0,68.0,-100.00,ESE,104,3.0,7.0,86,0.00,,,0.00,0.000000,,2013-02-07 01:32:00,
2013-02-06 20:52:00,72.0,68.0,-100.00,ESE,107,4.0,8.0,86,0.00,,,0.00,0.000000,,2013-02-07 01:52:00,
2013-02-06 21:02:00,72.0,68.0,-100.00,ESE,107,4.0,8.0,86,0.00,,,0.00,0.000000,,2013-02-07 02:02:00,
2013-02-06 21:12:00,72.0,68.0,-100.00,ESE,107,4.0,8.0,86,0.00,,,0.00,0.000000,,2013-02-07 02:12:00,
2013-02-06 21:21:00,72.0,68.0,-100.00,ESE,107,4.0,8.0,86,0.00,,,0.00,0.000000,,2013-02-07 02:21:00,
2013-02-06 21:32:00,72.0,68.0,-100.00,ESE,107,4.0,8.0,86,0.00,,,0.00,0.000000,,2013-02-07 02:32:00,
2013-02-06 22:02:00,71.0,67.0,-100.00,ESE,108,3.0,8.0,88,0.00,,,0.00,0.000000,,2013-02-07 03:02:00,
2013-02-06 22:11:00,71.0,67.0,-100.00,ESE,108,3.0,8.0,88,0.00,,,0.00,0.000000,,2013-02-07 03:11:00,
2013-02-06 22:21:00,71.0,67.0,-100.00,ESE,108,3.0,8.0,88,0.00,,,0.00,0.000000,,2013-02-07 03:21:00,
2013-02-06 22:32:00,71.0,67.0,-100.00,ESE,108,3.0,8.0,88,0.00,,,0.00,0.000000,,2013-02-07 03:32:00,
2013-02-06 23:01:00,71.0,67.0,-100.00,ESE,110,4.0,8.0,86,0.00,,,0.00,0.000000,,2013-02-07 04:01:00,
2013-02-06 23:11:00,71.0,67.0,-100.00,ESE,110,4.0,8.0,86,0.00,,,0.00,0.000000,,2013-02-07 04:11:00,
2013-02-06 23:22:00,71.0,67.0,-100.00,ESE,110,4.0,8.0,86,0.00,,,0.00,0.000000,,2013-02-07 04:22:00,
2013-02-06 23:32:00,71.0,67.0,-100.00,ESE,110,4.0,8.0,86,0.00,,,0.00,0.000000,,2013-02-07 04:32:00,